Weather History for Tetuan, Morocco

Change the Weather History Date:

Saturday, October 15, 2011

  Actual Average Record
Temperature  
Mean Temperature 70 °F -  
Max Temperature 77 °F 69 °F 83 °F (2013)
Min Temperature 63 °F 58 °F 55 °F (2005)
Cooling Degree Days 5    
Growing Degree Days 20 (Base 50)    
Moisture  
Dew Point 64 °F    
Average Humidity 74    
Maximum Humidity 95    
Minimum Humidity 53    
Precipitation  
Precipitation 0.00 in - - ()
Sea Level Pressure  
Sea Level Pressure 30.13 in    
Wind  
Wind Speed 7 mph ()    
Max Wind Speed 15 mph    
Max Gust Speed -    
Visibility 5.6 miles    
Events      
Averages and records for this station are not official NWS values.
T = Trace of Precipitation, MM = Missing Value Source: Averaged Metar Reports

Daily Weather History Graph

Daily Weather History Graph

Search for Another Location

Airport:

Trip Planner

Search our weather history database for the weather conditions in past years. The results will help you decide how hot, cold, wet, or windy it might be!

Date:

Astronomy

Oct. 15, 2011 Rise Set
Actual Time 6:27 AM WET 5:46 PM WET
Civil Twilight 6:01 AM WET 6:12 PM WET
Nautical Twilight 5:32 AM WET 6:41 PM WET
Astronomical Twilight 5:02 AM WET 7:11 PM WET
Moon 7:40 PM WET (10/15) 9:30 AM WET (10/15)
Length of Visible Light 12h 10m
Length of Day
11h 19m
Waning Gibbous, 90% of the Moon is Illuminated
Oct 15
Waning Gibbous
Oct 20
Last Quarter
Oct 26
New
Nov 2
First Quarter
Nov 10
Full

Hourly Weather History & Observations

Time (WET) Temp. Dew Point Humidity Pressure Visibility Wind Dir Wind Speed Gust Speed Precip Events Conditions
6:00 AM 64 °F 63 °F 95% 30.11 in 5 mi NNE 5.8 mph - -   Partly Cloudy
6:00 AM 64.4 °F 62.6 °F 94% 30.09 in 5.0 mi NNE 5.8 mph - N/A   Scattered Clouds
7:00 AM 64.4 °F 62.6 °F 94% 30.09 in 5.0 mi NE 4.6 mph - N/A   Mostly Cloudy
8:00 AM 69.8 °F 64.4 °F 83% 30.12 in 5.0 mi ENE 4.6 mph - N/A   Scattered Clouds
9:00 AM 74 °F 63 °F 61% 30.16 in 5 mi East 9.2 mph - -   Partly Cloudy
9:00 AM 73.4 °F 62.6 °F 69% 30.15 in 5.0 mi East 9.2 mph - N/A   Scattered Clouds
10:00 AM 77.0 °F 62.6 °F 61% 30.15 in 6.2 mi ESE 12.7 mph - N/A   Scattered Clouds
11:00 AM 77.0 °F 62.6 °F 61% 30.15 in 6.2 mi East 15.0 mph - N/A   Scattered Clouds
12:00 PM 77 °F 63 °F 53% 30.16 in 6 mi East 13.8 mph - -   Partly Cloudy
12:00 PM 77.0 °F 62.6 °F 61% 30.15 in 6.2 mi East 13.8 mph - N/A   Scattered Clouds
1:00 PM 75.2 °F 62.6 °F 65% 30.12 in 6.2 mi ENE 12.7 mph - N/A   Scattered Clouds
2:00 PM 75.2 °F 64.4 °F 69% 30.09 in 6.2 mi ENE 12.7 mph - N/A   Partly Cloudy
3:00 PM 76 °F 64 °F 57% 30.12 in 6 mi East 11.5 mph - -   Scattered Clouds
3:00 PM 75.2 °F 64.4 °F 69% 30.09 in 6.2 mi East 11.5 mph - N/A   Partly Cloudy
4:00 PM 75.2 °F 64.4 °F 69% 30.09 in 6.2 mi East 12.7 mph - N/A   Partly Cloudy
5:00 PM 73.4 °F 64.4 °F 73% 30.09 in 6.2 mi East 11.5 mph - N/A   Partly Cloudy
6:00 PM 71 °F 64 °F 71% 30.14 in 6 mi East 8.1 mph - -   Scattered Clouds
6:00 PM 71.6 °F 64.4 °F 78% 30.12 in 6.2 mi East 8.1 mph - N/A   Partly Cloudy
7:00 PM 69.8 °F 64.4 °F 83% 30.12 in 5.0 mi Calm Calm - N/A   Partly Cloudy
8:00 PM 68.0 °F 64.4 °F 88% 30.15 in 5.0 mi Calm Calm - N/A   Partly Cloudy
9:00 PM 68 °F 64 °F 82% 30.17 in 5 mi Calm Calm - -   Scattered Clouds
9:00 PM 68.0 °F 64.4 °F 88% 30.15 in 5.0 mi Calm Calm - N/A   Partly Cloudy